Wind_Speed
8 7 7 6 5 5 5 4 4 3 2 3 3 3 3 2 2 2 3 3 3 2 3 2 2 2 2 3 3 3 4 5 6 6 7 7 9 10 10 10 11 12 12
7 7 7 6 5 5 5 5 4 3 3 3 3 2 2 2 2 2 2 3 3 3 3 2 2 2 2 3 3 4 5 5 6 6 7 8 10 11 11 10 11 11 12
6 6 6 6 5 5 5 5 5 3 3 3 2 2 2 2 2 3 3 3 3 4 3 2 2 2 3 3 4 5 6 6 7 7 8 10 11 12 12 12 12 13 13
6 5 5 5 5 5 5 5 4 4 3 2 2 2 2 2 3 3 3 3 4 4 3 3 2 2 3 4 4 5 6 7 8 9 10 11 12 13 13 13 13 14 14
6 6 5 5 5 5 5 5 4 4 3 3 3 3 3 3 4 4 3 3 3 3 3 3 2 2 3 5 6 6 7 8 9 9 10 12 13 14 14 14 14 15 14
6 6 5 5 5 5 5 5 5 4 3 3 4 4 5 5 5 5 4 3 3 3 3 3 4 3 4 5 7 7 8 9 10 11 12 13 14 15 15 15 15 15 14
7 7 6 5 6 6 5 5 5 5 4 4 4 5 6 7 7 6 5 4 4 4 4 5 5 6 6 7 8 9 9 10 11 12 14 14 16 16 16 16 16 16 15
9 8 7 6 6 6 6 5 6 6 5 5 5 6 6 7 7 7 6 6 6 6 6 6 7 7 7 9 10 10 11 11 12 14 15 15 16 16 17 17 17 17 17
10 10 9 8 7 7 7 7 7 7 7 7 7 7 7 8 8 8 7 7 7 7 7 8 8 8 9 10 11 11 13 13 14 15 16 16 16 17 18 18 18 17 17
12 12 11 11 10 9 9 8 8 8 8 8 8 8 9 8 8 8 8 8 8 8 8 9 10 10 11 11 12 13 14 15 15 16 16 16 17 18 19 19 19 19 19
14 14 13 13 12 12 11 11 10 10 10 10 10 10 10 10 10 10 10 10 10 9 10 10 11 12 12 13 14 15 15 16 17 17 17 17 17 18 19 19 20 20 20
16 16 15 15 14 14 13 13 13 12 12 12 12 12 12 12 11 11 12 12 12 12 13 13 13 14 14 15 16 17 17 17 17 18 18 18 18 19 20 20 20 21 22
18 18 18 18 17 16 16 15 15 15 15 15 14 14 14 14 14 13 14 14 14 14 15 16 17 16 17 18 18 19 18 19 19 20 20 20 20 21 21 21 22 23 23
20 19 19 20 19 18 18 17 17 18 18 18 17 17 17 17 16 16 16 16 17 17 17 19 19 19 19 20 20 20 20 20 21 22 22 22 23 23 23 23 24 24 24
22 21 20 21 21 20 19 20 20 20 20 20 19 19 19 19 18 18 19 19 19 18 19 21 21 21 21 22 22 23 23 23 23 24 24 25 25 25 25 25 24 25 25
24 22 21 22 22 22 22 22 22 22 22 21 21 21 21 21 21 21 21 20 21 21 22 22 23 23 23 23 23 23 23 24 25 26 26 26 26 27 28 27 26 26 26
26 24 24 23 24 23 23 23 22 22 22 23 23 23 23 23 23 23 23 23 23 23 24 24 24 24 24 25 25 25 25 27 27 28 29 29 29 29 29 28 28 28 28
28 26 25 25 26 26 26 25 24 23 23 23 23 24 25 25 25 24 24 25 26 26 26 26 26 26 26 27 27 28 29 29 30 30 31 31 30 30 30 29 29 29 29
29 28 27 27 27 27 27 27 26 26 25 25 26 26 26 26 26 26 26 27 27 28 28 28 29 29 29 29 29 30 31 31 31 32 32 31 30 30 30 30 30 31 31
31 31 30 29 30 30 29 28 28 28 28 28 28 29 28 28 29 29 29 29 30 30 30 30 30 30 30 31 31 32 32 33 33 33 32 31 30 31 31 31 32 32 32
34 33 33 33 32 32 32 31 31 31 31 31 31 32 32 31 31 32 32 32 33 33 33 33 33 34 33 33 33 34 34 34 34 34 33 32 32 32 32 33 33 33 33
36 35 35 35 35 35 34 34 34 33 33 34 34 34 34 34 34 34 34 35 35 36 35 36 36 36 36 35 35 35 35 34 35 35 34 34 34 33 33 34 34 34 34
38 38 37 37 37 36 35 35 35 35 35 36 36 37 37 36 37 37 38 38 38 38 38 38 38 38 38 37 37 36 36 35 35 35 34 35 35 35 35 35 36 36 35
39 38 37 37 37 37 37 37 37 37 37 37 38 39 39 39 39 39 39 40 40 40 39 40 40 40 39 38 38 37 37 37 37 37 36 36 37 36 36 37 37 36 36
38 38 38 38 38 38 39 39 39 39 39 39 40 41 41 40 40 41 41 41 41 41 41 42 42 41 40 40 39 39 39 39 39 39 38 38 38 37 38 38 38 37 37
37 38 39 39 39 39 40 40 40 41 41 40 41 42 42 42 42 42 42 42 42 43 43 43 43 43 42 42 42 42 42 42 41 41 40 40 40 40 39 40 39 38 37
Wind_Direction
26 33 37 43 54 58 56 51 56 62 67 68 68 69 75 89 90 72 65 53 49 49 45 59 50 40 32 18 10 356 349 350 349 347 345 341 340 340 334 331 329 329 326
19 24 32 36 49 50 45 37 32 41 56 63 64 75 76 71 65 60 48 38 37 29 34 55 57 35 22 17 9 2 356 352 348 342 337 338 335 335 333 328 327 329 326
6 14 21 26 37 37 34 32 31 38 54 58 50 55 58 43 40 45 35 24 21 16 18 30 34 10 4 8 359 352 348 345 342 341 339 339 337 336 333 330 330 330 327
349 356 6 11 19 21 21 20 21 29 40 40 25 18 24 20 14 25 20 10 9 9 10 32 34 359 351 348 346 341 339 338 337 335 334 334 334 332 331 329 328 327 324
332 330 344 349 357 1 9 10 10 19 22 13 359 357 355 348 353 5 6 4 7 8 11 10 359 338 336 342 343 340 337 335 333 329 330 331 332 333 332 329 326 325 324
319 316 319 329 333 336 348 358 360 358 355 352 347 340 343 350 347 342 344 339 336 342 341 336 331 323 326 332 335 337 334 331 330 328 329 328 328 329 329 328 324 323 322
305 307 308 316 321 320 327 337 342 337 332 334 335 334 336 339 344 342 331 318 316 320 317 310 312 312 317 324 329 331 330 332 332 330 329 327 327 326 326 326 323 323 322
290 296 298 304 309 308 309 317 321 319 316 319 321 322 324 327 333 336 331 318 311 311 311 311 310 309 312 317 322 328 331 332 331 328 327 327 325 322 323 323 323 322 322
283 289 292 287 290 299 303 303 307 308 308 311 315 318 317 319 323 328 322 315 307 303 301 304 309 309 308 310 314 318 321 323 324 324 325 325 325 322 323 323 326 323 322
279 280 284 283 282 287 293 297 297 299 301 303 307 310 314 312 313 315 311 307 300 297 295 295 302 302 303 307 311 313 315 318 321 321 323 323 326 324 322 322 321 322 323
274 278 279 281 282 281 283 286 290 291 293 295 298 302 306 308 309 308 305 303 300 300 299 298 301 302 304 306 308 310 311 314 316 320 323 324 325 324 321 319 319 319 321
269 274 274 278 280 279 279 280 282 284 286 290 293 297 297 299 300 299 299 298 299 301 299 298 301 302 303 305 306 306 308 310 313 316 318 319 321 320 320 318 317 316 317
261 265 269 272 275 278 278 277 277 280 283 286 287 291 292 293 293 293 295 295 294 296 298 298 297 299 300 303 304 304 306 308 310 312 312 313 314 314 315 316 316 315 314
260 258 263 267 269 272 274 274 278 280 282 283 283 285 287 287 287 289 290 291 293 294 296 295 295 295 295 297 300 300 302 304 306 307 309 308 308 309 310 311 312 312 311
261 259 259 264 264 267 271 273 275 276 278 279 281 281 283 284 285 287 288 289 291 292 295 298 295 294 293 293 295 296 299 300 301 304 306 306 306 307 307 308 308 308 309
263 265 263 264 264 265 268 271 271 272 274 276 278 281 282 284 285 287 288 289 290 292 297 299 296 293 290 290 292 294 297 300 300 302 304 303 303 303 303 304 305 306 306
262 264 265 264 265 265 267 268 271 271 271 273 275 278 279 281 283 286 288 288 291 290 293 295 296 294 293 291 293 292 294 297 298 299 301 301 300 300 301 302 303 303 303
260 262 262 264 264 265 265 268 270 271 273 275 277 279 279 281 282 285 287 287 288 290 293 294 293 292 292 292 291 290 292 295 297 297 298 299 300 299 299 300 301 302 302
259 261 261 261 261 264 265 266 268 270 273 274 276 278 278 279 281 283 285 286 288 289 290 291 290 291 291 291 292 292 291 293 295 297 298 298 299 299 298 299 300 300 299
261 260 261 261 261 263 264 265 269 270 271 272 273 275 276 276 279 282 284 285 287 289 290 291 291 290 291 292 292 292 292 293 295 296 296 296 296 297 297 298 299 299 298
260 260 260 260 261 263 264 265 267 267 267 270 271 272 273 275 277 280 283 284 285 287 288 289 290 290 292 293 292 292 292 294 294 294 293 294 294 296 297 297 298 298 298
258 258 259 260 261 263 264 264 266 266 267 270 272 272 273 274 276 278 281 282 284 285 288 289 289 290 292 292 291 293 293 293 292 291 291 293 293 294 295 296 296 297 297
257 258 259 260 261 262 263 263 265 267 267 270 271 272 273 274 276 278 280 281 283 284 286 287 288 289 290 291 290 291 291 292 292 291 290 291 293 294 294 295 296 296 297
257 257 258 258 259 261 263 263 264 266 267 269 270 271 273 275 276 278 280 281 281 282 283 285 286 286 287 287 287 288 288 289 290 289 288 289 290 292 293 294 295 294 295
257 257 257 257 258 260 262 264 264 265 266 268 269 270 272 273 275 277 278 280 281 282 284 286 286 286 285 285 285 285 287 288 288 287 287 288 289 290 292 293 294 294 294
257 258 259 260 261 263 264 264 264 265 266 268 269 270 272 273 275 276 277 278 280 281 283 285 285 285 286 287 286 286 286 286 287 287 287 287 288 290 291 293 293 293 293
Height
5898 5897 5897 5896 5896 5896 5895 5895 5895 5896 5896 5896 5897 5897 5897 5897 5897 5897 5897 5897 5897 5897 5897 5897 5898 5898 5898 5898 5898 5898 5898 5898 5897 5896 5896 5895 5895 5893 5892 5891 5890 5889 5887
5899 5899 5898 5898 5897 5897 5897 5897 5897 5897 5897 5897 5897 5898 5898 5898 5898 5898 5897 5897 5897 5897 5897 5897 5898 5898 5898 5898 5898 5898 5898 5897 5897 5896 5895 5895 5894 5892 5891 5890 5888 5887 5886
5901 5900 5900 5899 5899 5899 5899 5898 5898 5898 5898 5898 5898 5899 5899 5899 5899 5899 5898 5898 5898 5897 5898 5898 5898 5898 5899 5898 5898 5898 5897 5897 5896 5895 5895 5894 5892 5891 5890 5888 5887 5885 5884
5902 5901 5901 5901 5900 5900 5900 5899 5899 5899 5899 5899 5900 5900 5900 5900 5899 5899 5898 5898 5898 5898 5898 5898 5898 5898 5898 5898 5898 5897 5897 5896 5895 5894 5893 5892 5891 5889 5888 5886 5885 5884 5882
5902 5902 5902 5902 5901 5901 5901 5900 5900 5900 5900 5900 5900 5900 5900 5900 5900 5899 5899 5898 5898 5898 5898 5898 5898 5898 5898 5898 5897 5897 5896 5896 5895 5893 5892 5891 5889 5887 5886 5885 5883 5882 5880
5902 5902 5902 5902 5902 5902 5901 5901 5901 5901 5901 5901 5901 5901 5900 5900 5900 5899 5899 5899 5899 5898 5898 5898 5898 5898 5897 5897 5896 5895 5895 5894 5893 5892 5891 5889 5887 5886 5884 5882 5880 5879 5877
5902 5901 5901 5901 5901 5901 5902 5902 5901 5901 5901 5901 5901 5901 5900 5900 5900 5899 5899 5898 5898 5898 5897 5897 5897 5897 5896 5896 5895 5894 5893 5893 5891 5890 5889 5887 5885 5883 5882 5880 5878 5876 5874
5900 5900 5900 5901 5901 5901 5901 5901 5901 5901 5901 5901 5901 5900 5900 5900 5899 5898 5898 5897 5897 5897 5897 5896 5896 5896 5895 5895 5894 5893 5892 5891 5890 5888 5887 5885 5883 5881 5879 5877 5875 5873 5872
5899 5899 5899 5899 5900 5900 5900 5900 5900 5900 5900 5900 5900 5900 5899 5899 5898 5897 5897 5896 5896 5896 5896 5895 5894 5894 5893 5893 5892 5891 5890 5889 5888 5886 5884 5882 5880 5878 5876 5874 5872 5871 5869
5897 5897 5897 5897 5898 5898 5899 5899 5899 5899 5899 5899 5899 5899 5898 5898 5897 5896 5896 5895 5895 5894 5894 5894 5893 5893 5892 5891 5890 5889 5888 5886 5885 5883 5881 5879 5877 5875 5873 5871 5869 5867 5865
5894 5894 5895 5895 5896 5896 5896 5897 5897 5897 5897 5897 5897 5897 5896 5896 5896 5895 5894 5893 5893 5892 5892 5892 5891 5890 5889 5888 5887 5886 5885 5883 5882 5880 5878 5876 5874 5872 5870 5868 5866 5863 5861
5892 5892 5892 5893 5893 5894 5894 5894 5894 5894 5895 5895 5895 5894 5894 5894 5893 5893 5892 5892 5891 5890 5890 5889 5888 5888 5887 5886 5884 5883 5881 5880 5878 5877 5875 5873 5871 5869 5866 5864 5862 5860 5858
5888 5888 5889 5889 5890 5891 5891 5891 5891 5891 5892 5892 5892 5892 5891 5891 5891 5890 5889 5889 5888 5887 5886 5886 5885 5884 5883 5882 5880 5879 5877 5876 5875 5873 5871 5869 5867 5865 5862 5860 5858 5856 5853
5883 5884 5885 5885 5887 5887 5887 5887 5887 5888 5888 5888 5888 5888 5888 5888 5887 5887 5886 5885 5885 5884 5883 5882 5881 5879 5879 5877 5876 5875 5873 5872 5870 5868 5866 5864 5862 5860 5857 5855 5853 5851 5848
5877 5879 5880 5881 5882 5883 5883 5883 5884 5884 5884 5884 5884 5884 5884 5884 5884 5883 5882 5882 5881 5880 5879 5877 5876 5875 5874 5873 5871 5870 5868 5867 5865 5863 5861 5859 5857 5854 5852 5850 5847 5845 5843
5872 5873 5875 5877 5877 5879 5879 5879 5879 5879 5879 5879 5879 5879 5879 5879 5879 5879 5878 5877 5876 5875 5874 5872 5871 5869 5868 5867 5866 5864 5863 5861 5859 5857 5855 5853 5851 5848 5846 5844 5841 5839 5836
5867 5869 5870 5871 5872 5873 5874 5874 5874 5874 5874 5874 5874 5874 5874 5874 5874 5874 5873 5872 5871 5870 5868 5867 5866 5864 5863 5861 5860 5858 5857 5855 5852 5851 5849 5846 5844 5842 5840 5837 5834 5832 5829
5861 5862 5863 5865 5867 5867 5868 5868 5869 5869 5869 5869 5869 5869 5869 5869 5869 5868 5867 5866 5865 5864 5863 5861 5860 5858 5857 5855 5853 5851 5850 5848 5846 5843 5841 5839 5837 5834 5832 5830 5827 5824 5822
5854 5855 5857 5859 5860 5860 5861 5862 5863 5863 5863 5863 5863 5863 5863 5863 5862 5862 5861 5860 5859 5858 5856 5854 5853 5852 5850 5848 5846 5844 5842 5840 5838 5836 5833 5831 5829 5827 5824 5822 5820 5817 5814
5847 5848 5850 5851 5852 5852 5852 5854 5855 5856 5856 5856 5856 5856 5856 5855 5855 5855 5854 5853 5852 5850 5849 5847 5845 5844 5842 5840 5838 5836 5834 5832 5830 5828 5826 5823 5821 5819 5817 5814 5812 5809 5807
5839 5841 5842 5843 5844 5844 5845 5846 5847 5848 5848 5848 5848 5848 5848 5847 5847 5847 5846 5845 5843 5842 5840 5839 5837 5835 5833 5832 5830 5827 5825 5823 5821 5819 5817 5815 5813 5811 5808 5806 5803 5801 5798
5830 5832 5833 5834 5835 5836 5837 5838 5838 5839 5839 5839 5839 5839 5839 5838 5838 5838 5837 5835 5834 5833 5831 5830 5828 5827 5825 5823 5821 5818 5816 5814 5812 5810 5808 5806 5804 5802 5800 5797 5794 5791 5789
5820 5822 5823 5825 5825 5826 5827 5828 5829 5829 5829 5830 5830 5830 5830 5829 5829 5828 5827 5825 5824 5823 5821 5820 5818 5817 5815 5813 5811 5809 5807 5805 5803 5801 5799 5797 5795 5793 5790 5788 5785 5782 5779
5809 5811 5813 5814 5815 5816 5817 5818 5819 5819 5819 5820 5820 5819 5819 5819 5818 5817 5816 5815 5814 5812 5811 5809 5807 5806 5805 5803 5802 5800 5798 5796 5794 5792 5790 5788 5786 5783 5781 5778 5775 5772 5770
5798 5800 5802 5803 5805 5806 5807 5807 5808 5808 5809 5809 5809 5808 5808 5808 5807 5806 5805 5804 5803 5802 5800 5799 5797 5795 5794 5793 5791 5789 5787 5785 5783 5781 5779 5777 5775 5773 5771 5768 5765 5762 5760
5787 5789 5791 5792 5794 5795 5796 5796 5797 5797 5798 5798 5797 5797 5796 5796 5796 5795 5794 5793 5792 5791 5789 5787 5786 5784 5783 5781 5779 5777 5776 5773 5771 5769 5767 5765 5764 5761 5759 5757 5755 5752 5749